TimeMST,TemperatureF,Dew PointF,Humidity,Sea Level PressureIn,VisibilityMPH,Wind Direction,Wind SpeedMPH,Gust SpeedMPH,PrecipitationIn,Events,Conditions,WindDirDegrees,DateUTC
12:53 AM,-6.0,-11.0,79,30.56,10.0,Calm,Calm,-,N/A,,Clear,0,2013-01-04 07:53:00
1:53 AM,-8.0,-14.1,75,30.56,10.0,Calm,Calm,-,N/A,,Clear,0,2013-01-04 08:53:00
2:53 AM,-9.9,-15.0,78,30.58,10.0,Calm,Calm,-,N/A,,Clear,0,2013-01-04 09:53:00
3:53 AM,-13.0,-18.9,75,30.60,10.0,Calm,Calm,-,N/A,,Clear,0,2013-01-04 10:53:00
4:53 AM,-7.1,-13.0,75,30.57,10.0,Calm,Calm,-,N/A,,Clear,0,2013-01-04 11:53:00
5:53 AM,-13.0,-18.9,75,30.63,10.0,Calm,Calm,-,N/A,,Clear,0,2013-01-04 12:53:00
6:53 AM,-11.0,-18.0,71,30.64,10.0,Calm,Calm,-,N/A,,Clear,0,2013-01-04 13:53:00
7:53 AM,-13.0,-18.9,75,30.66,10.0,Calm,Calm,-,N/A,,Clear,0,2013-01-04 14:53:00
8:53 AM,-0.9,-7.1,75,30.14,10.0,Calm,Calm,-,N/A,,Clear,0,2013-01-04 15:53:00
9:53 AM,3.9,-2.9,73,30.14,10.0,Calm,Calm,-,N/A,,Clear,0,2013-01-04 16:53:00
10:53 AM,9.0,-2.0,61,30.58,10.0,Calm,Calm,-,N/A,,Clear,0,2013-01-04 17:53:00
11:53 AM,12.9,-0.9,54,30.54,10.0,Calm,Calm,-,N/A,,Clear,0,2013-01-04 18:53:00
12:53 PM,18.0,1.9,50,30.45,10.0,Calm,Calm,-,N/A,,Clear,0,2013-01-04 19:53:00
1:53 PM,19.9,3.9,50,30.43,10.0,WSW,9.2,-,N/A,,Clear,240,2013-01-04 20:53:00
2:53 PM,19.9,3.0,48,30.43,10.0,Calm,Calm,-,N/A,,Clear,0,2013-01-04 21:53:00
3:53 PM,19.0,5.0,54,30.44,10.0,ESE,4.6,-,N/A,,Clear,110,2013-01-04 22:53:00
4:53 PM,8.1,-0.9,67,30.46,10.0,North,10.4,-,N/A,,Clear,360,2013-01-04 23:53:00
5:53 PM,5.0,-4.0,66,30.51,10.0,SW,4.6,-,N/A,,Clear,220,2013-01-05 00:53:00
6:53 PM,3.9,-4.0,70,30.51,10.0,West,4.6,-,N/A,,Clear,260,2013-01-05 01:53:00
7:53 PM,3.9,-4.0,70,30.53,10.0,South,4.6,-,N/A,,Clear,170,2013-01-05 02:53:00
8:53 PM,-0.9,-9.0,69,30.03,10.0,NE,5.8,-,N/A,,Clear,40,2013-01-05 03:53:00
9:53 PM,3.0,-7.1,63,30.46,10.0,WSW,3.5,-,N/A,,Clear,250,2013-01-05 04:53:00
10:53 PM,1.0,-7.1,69,30.45,10.0,Calm,Calm,-,N/A,,Clear,0,2013-01-05 05:53:00
11:53 PM,-5.1,-11.0,76,30.45,10.0,Calm,Calm,-,N/A,,Clear,0,2013-01-05 06:53:00